W5WDV Weather Reports


time (UTC)temp
C
wind
direction
speed
KPH
gust
KPH
rain 1hr
cm
rain 24hr
cm
rain mn
cm
humidity
%
barometer
mb
20260508055959 17 62 0.0 0.0 0.00 0.00 0.00 59 1014.0
20260508055457 17 61 0.0 0.0 0.00 0.00 0.00 58 1014.2
20260508054957 17 61 0.0 0.0 0.00 0.00 0.00 58 1014.6
20260508054456 17 61 0.0 0.0 0.00 0.00 0.00 58 1014.7
20260508053456 17 2 0.0 4.8 0.00 0.00 0.00 58 1014.6
20260508052957 17 340 1.6 4.8 0.00 0.00 0.00 59 1014.4
20260508052456 17 332 0.0 8.0 0.00 0.00 0.00 58 1014.4
20260508051958 17 2 3.2 8.0 0.00 0.00 0.00 58 1014.5
20260508051459 17 307 0.0 8.0 0.00 0.00 0.00 57 1014.5
20260508050959 17 296 1.6 9.7 0.00 0.00 0.00 56 1014.9
20260508050456 17 347 3.2 9.7 0.00 0.00 0.00 55 1014.9
20260508050002 17 310 3.2 11.3 0.00 0.00 0.00 55 1013.5
20260508045456 17 86 0.0 11.3 0.00 0.00 0.00 56 1012.7
20260508044957 17 25 1.6 11.3 0.00 0.00 0.00 57 1012.9
20260508043957 17 93 3.2 9.7 0.00 0.00 0.00 60 1012.6
20260508043458 17 95 3.2 9.7 0.00 0.00 0.00 61 1012.5
20260508042457 17 118 4.8 9.7 0.00 0.00 0.00 63 1012.8
20260508041957 17 124 1.6 12.9 0.00 0.00 0.00 63 1013.1
20260508041457 18 90 4.8 12.9 0.00 0.00 0.00 64 1013.1
20260508040957 18 81 1.6 12.9 0.00 0.00 0.00 64 1013.5
20260508040456 18 98 3.2 11.3 0.00 0.00 0.00 65 1013.5
20260508035957 18 80 3.2 9.7 0.00 0.00 0.00 66 1013.3
20260508034959 18 78 3.2 9.7 0.00 0.00 0.00 67 1013.7
20260508034456 18 30 1.6 14.5 0.00 0.00 0.00 67 1013.8
20260508033957 18 88 4.8 14.5 0.00 0.00 0.00 68 1014.0
20260508033456 18 2 3.2 11.3 0.00 0.00 0.00 68 1014.1
20260508032957 18 42 3.2 14.5 0.00 0.00 0.00 68 1014.1
20260508032459 18 66 1.6 14.5 0.00 0.00 0.00 68 1014.1
20260508031957 18 13 1.6 14.5 0.00 0.00 0.00 68 1014.3
20260508031459 18 23 1.6 12.9 0.00 0.00 0.00 67 1014.5
20260508030957 18 11 6.4 12.9 0.00 0.00 0.00 67 1014.4
20260508030457 18 11 1.6 8.0 0.00 0.00 0.00 67 1014.2
20260508025456 18 22 3.2 8.0 0.00 0.00 0.00 67 1014.2
20260508024957 18 3 1.6 8.0 0.00 0.00 0.00 67 1014.0
20260508024456 18 1 3.2 8.0 0.00 0.00 0.00 67 1013.9
20260508023957 18 101 0.0 3.2 0.00 0.00 0.00 67 1013.9
20260508023457 18 101 0.0 3.2 0.00 0.00 0.00 68 1013.6
20260508022957 18 103 0.0 4.8 0.00 0.00 0.00 68 1013.4
20260508022457 18 103 0.0 4.8 0.00 0.00 0.00 68 1013.2
20260508021957 18 103 1.6 4.8 0.00 0.00 0.00 69 1013.2
20260508021459 18 86 0.0 3.2 0.00 0.00 0.00 69 1013.4
20260508020958 18 78 0.0 4.8 0.00 0.00 0.00 69 1013.4
20260508020456 18 78 1.6 9.7 0.00 0.00 0.00 70 1013.0
20260508015957 18 106 0.0 9.7 0.00 0.00 0.00 70 1012.8
20260508015456 18 142 4.8 12.9 0.00 0.00 0.00 70 1012.7
20260508014456 18 103 3.2 12.9 0.00 0.00 0.00 71 1012.8
20260508013957 18 58 3.2 14.5 0.00 0.00 0.00 71 1012.6
20260508013457 18 89 3.2 14.5 0.00 0.00 0.00 71 1012.8
20260508012958 18 81 3.2 14.5 0.00 0.00 0.00 72 1012.7
20260508012458 18 109 0.0 14.5 0.00 0.00 0.00 72 1012.2
20260508011459 18 103 11.3 19.3 0.00 0.00 0.00 72 1011.8
20260508010956 19 99 8.0 19.3 0.00 0.00 0.00 73 1011.7
20260508010457 19 87 6.4 19.3 0.00 0.00 0.00 73 1011.4
20260508005957 19 130 9.7 22.5 0.00 0.00 0.00 73 1011.3
20260508005457 19 136 11.3 24.1 0.00 0.00 0.00 73 1011.3
20260508004959 19 132 6.4 24.1 0.00 0.00 0.00 72 1011.4
20260508004457 20 123 4.8 24.1 0.00 0.00 0.00 73 1011.6
20260508003959 20 102 6.4 24.1 0.00 0.00 0.00 73 1011.8
20260508003457 20 90 9.7 24.1 0.00 0.00 0.00 72 1012.0
20260508002957 20 96 8.0 14.5 0.00 0.00 0.00 72 1012.1
20260508002457 20 110 4.8 14.5 0.00 0.00 0.00 73 1012.3
20260508002001 20 90 8.0 14.5 0.00 0.00 0.00 72 1013.0
20260508001457 20 111 4.8 12.9 0.00 0.00 0.00 72 1013.0
20260508000957 20 88 4.8 16.1 0.00 0.00 0.00 72 1013.0
20260508000457 20 26 6.4 16.1 0.00 0.00 0.00 72 1013.4
20260507234957 20 94 4.8 11.3 0.00 0.00 0.00 72 1013.8
20260507234456 20 90 1.6 11.3 0.00 0.00 0.00 72 1013.8
20260507233959 20 106 1.6 14.5 0.00 0.00 0.00 72 1013.8
20260507233457 20 22 3.2 14.5 0.00 0.00 0.00 72 1013.7
20260507233000 20 100 1.6 16.1 0.00 0.00 0.00 71 1013.6
20260507231958 21 51 3.2 19.3 0.00 0.00 0.00 71 1013.9
20260507231458 21 115 3.2 19.3 0.00 0.00 0.00 71 1013.9
20260507230958 21 62 6.4 19.3 0.00 0.00 0.00 70 1013.7
20260507230457 21 25 4.8 14.5 0.00 0.00 0.00 71 1013.7
20260507225456 20 54 1.6 12.9 0.00 0.03 0.00 71 1014.0
20260507224456 21 119 6.4 14.5 0.00 0.03 0.00 71 1014.0
20260507223957 21 97 4.8 12.9 0.00 0.03 0.00 71 1014.0
20260507222957 20 91 4.8 20.9 0.00 0.03 0.00 72 1014.1
20260507222457 20 96 8.0 20.9 0.00 0.03 0.00 71 1014.0
20260507221457 20 67 1.6 11.3 0.00 0.03 0.00 72 1014.1
20260507220957 20 86 3.2 11.3 0.00 0.03 0.00 72 1014.3
20260507220457 20 70 1.6 14.5 0.00 0.03 0.00 72 1014.5
20260507215957 20 19 6.4 14.5 0.00 0.03 0.00 72 1014.4
20260507214958 20 39 6.4 14.5 0.00 0.03 0.00 72 1014.4
20260507214500 20 104 4.8 20.9 0.00 0.03 0.00 71 1014.4
20260507213959 20 350 1.6 20.9 0.00 0.03 0.00 71 1014.6
20260507213457 20 70 4.8 20.9 0.00 0.03 0.00 71 1014.4
20260507212457 20 334 3.2 16.1 0.00 0.03 0.00 71 1014.5
20260507211957 20 68 4.8 19.3 0.00 0.03 0.00 71 1014.5
20260507211457 20 9 4.8 19.3 0.00 0.03 0.00 71 1014.2
20260507210457 20 35 4.8 16.1 0.00 0.03 0.00 70 1014.1
20260507205456 20 8 8.0 16.1 0.00 0.03 0.00 71 1014.6
20260507204957 20 13 8.0 16.1 0.00 0.03 0.00 71 1014.6
20260507204457 20 54 4.8 16.1 0.00 0.03 0.00 70 1014.7
20260507203958 20 44 3.2 14.5 0.00 0.03 0.00 70 1014.4
20260507203501 20 88 4.8 16.1 0.00 0.03 0.00 67 1014.1
20260507202457 20 85 8.0 20.9 0.00 0.03 0.00 66 1014.4
20260507202000 20 96 6.4 19.3 0.00 0.03 0.00 63 1014.4
20260507201457 20 87 3.2 12.9 0.00 0.03 0.00 60 1014.7
20260507200456 19 52 3.2 14.5 0.00 0.03 0.00 61 1014.8
20260507195957 19 91 6.4 14.5 0.00 0.03 0.00 58 1014.8
20260507195456 19 75 3.2 20.9 0.00 0.03 0.00 51 1014.6
20260507194957 19 77 8.0 20.9 0.00 0.03 0.00 54 1014.7
20260507194457 19 60 6.4 19.3 0.00 0.03 0.00 46 1014.5
20260507193958 19 73 9.7 19.3 0.00 0.03 0.00 37 1014.6
20260507193457 18 85 8.0 19.3 0.00 0.03 0.00 22 1014.5
20260507192958 18 105 8.0 19.3 0.00 0.03 0.00 19 1014.1
20260507192457 18 91 8.0 19.3 0.00 0.03 0.00 17 1014.1
20260507191959 18 77 4.8 16.1 0.00 0.03 0.00 17 1014.5
20260507191456 18 82 8.0 16.1 0.00 0.03 0.00 17 1014.5
20260507191000 18 104 4.8 16.1 0.00 0.03 0.00 17 1014.9
20260507190457 18 93 3.2 20.9 0.00 0.03 0.00 17 1014.9
20260507190002 18 95 4.8 20.9 0.00 0.03 0.00 17 1014.8
20260507185457 18 51 8.0 20.9 0.00 0.03 0.00 17 1015.2
20260507184957 18 64 6.4 14.5 0.00 0.03 0.00 17 1015.4
20260507184457 18 107 4.8 14.5 0.00 0.03 0.00 17 1015.3
20260507183957 18 66 3.2 11.3 0.00 0.03 0.00 17 1015.4
20260507183456 18 72 1.6 11.3 0.00 0.03 0.00 17 1016.0
20260507182957 18 64 4.8 11.3 0.00 0.03 0.00 17 1016.5
20260507182457 18 103 3.2 11.3 0.00 0.03 0.00 23 1016.4
20260507181957 18 34 1.6 8.0 0.00 0.03 0.00 25 1016.1
20260507181457 18 73 1.6 11.3 0.00 0.03 0.00 26 1016.3
20260507180957 18 80 1.6 14.5 0.00 0.03 0.00 27 1016.2
20260507180857 18 89 1.6 14.5 0.00 0.03 0.00 28 1016.2
20260507180458 18 64 4.8 14.5 0.00 0.03 0.00 32 1016.1
20260507175457 18 44 8.0 19.3 0.00 0.03 0.00 25 1015.9
20260507174957 18 111 3.2 19.3 0.00 0.03 0.00 17 1015.9
20260507174500 18 70 8.0 19.3 0.00 0.03 0.00 22 1016.0
20260507173957 17 54 4.8 19.3 0.00 0.03 0.00 22 1016.0
20260507173457 17 41 9.7 20.9 0.00 0.03 0.00 23 1016.1
20260507172958 17 61 4.8 20.9 0.00 0.03 0.00 17 1016.2
20260507172500 17 65 4.8 16.1 0.00 0.03 0.00 17 1016.1
20260507171958 17 76 4.8 16.1 0.00 0.03 0.00 17 1016.3
20260507170958 17 94 8.0 16.1 0.00 0.03 0.00 17 1016.4
20260507165957 17 54 3.2 20.9 0.00 0.03 0.00 17 1016.6
20260507165457 17 50 4.8 14.5 0.00 0.03 0.00 17 1016.7
20260507164459 17 39 4.8 20.9 0.00 0.03 0.00 17 1016.5
20260507163958 17 71 6.4 20.9 0.00 0.03 0.00 17 1016.4
20260507163500 17 103 6.4 16.1 0.00 0.03 0.00 17 1016.4
20260507162959 17 30 4.8 19.3 0.00 0.03 0.00 17 1016.2
20260507162500 17 87 8.0 19.3 0.00 0.03 0.00 17 1016.4
20260507160959 17 71 6.4 19.3 0.00 0.03 0.00 17 1016.4
20260507160457 17 44 4.8 24.1 0.00 0.03 0.00 17 1016.3
20260507155957 17 42 9.7 25.7 0.00 0.03 0.00 17 1016.3
20260507154457 16 51 9.7 24.1 0.00 0.03 0.00 17 1016.1
20260507153958 17 67 9.7 24.1 0.00 0.03 0.00 17 1016.3
20260507153457 17 58 4.8 22.5 0.00 0.03 0.00 17 1016.3
20260507152957 17 31 8.0 22.5 0.00 0.03 0.00 17 1016.2
20260507152457 17 49 4.8 20.9 0.00 0.03 0.00 17 1016.1
20260507151958 17 70 11.3 22.5 0.00 0.03 0.00 17 1016.1
20260507150958 16 24 6.4 29.0 0.00 0.03 0.00 17 1016.0
20260507150458 17 18 8.0 20.9 0.00 0.03 0.00 17 1015.9
20260507145957 17 47 9.7 22.5 0.00 0.03 0.00 17 1015.7
20260507145457 17 46 9.7 22.5 0.00 0.03 0.00 17 1015.7
20260507145001 16 26 9.7 20.9 0.00 0.03 0.00 17 1015.6
20260507143957 16 353 6.4 22.5 0.00 0.03 0.00 17 1015.8
20260507143457 16 41 8.0 22.5 0.00 0.03 0.00 17 1015.9
20260507142957 16 20 4.8 19.3 0.00 0.03 0.00 17 1016.1
20260507142500 16 60 9.7 20.9 0.00 0.03 0.00 17 1016.1
20260507141958 16 57 4.8 20.9 0.00 0.03 0.00 17 1016.0
20260507141457 16 357 9.7 20.9 0.00 0.03 0.00 17 1015.6
20260507140457 16 9 4.8 22.5 0.00 0.03 0.00 17 1015.7
20260507135457 16 356 9.7 24.1 0.00 0.03 0.00 17 1015.8
20260507134959 16 14 9.7 24.1 0.00 0.03 0.00 17 1016.2
20260507134458 16 341 4.8 22.5 0.00 0.03 0.00 17 1016.0
20260507133957 16 8 6.4 22.5 0.00 0.03 0.00 17 1016.0
20260507133458 16 47 6.4 19.3 0.00 0.03 0.00 17 1016.2
20260507132958 16 359 4.8 20.9 0.00 0.03 0.00 17 1016.0
20260507132459 16 28 8.0 20.9 0.00 0.03 0.00 17 1015.6
20260507131958 16 64 6.4 19.3 0.00 0.03 0.00 17 1015.6
20260507131500 16 3 9.7 19.3 0.00 0.03 0.00 17 1015.6
20260507130959 16 51 6.4 14.5 0.00 0.03 0.00 17 1015.7
20260507125957 16 354 4.8 14.5 0.00 0.03 0.00 17 1015.8
20260507125000 16 356 4.8 14.5 0.00 0.03 0.00 17 1015.9
20260507124457 16 23 3.2 16.1 0.00 0.03 0.00 17 1016.0
20260507123958 16 22 6.4 16.1 0.00 0.03 0.00 17 1015.7
20260507123457 16 91 6.4 14.5 0.00 0.03 0.00 17 1015.6
20260507122458 17 46 8.0 19.3 0.00 0.03 0.00 17 1015.4
20260507121500 17 358 4.8 16.1 0.00 0.03 0.00 17 1015.0
20260507120958 17 62 6.4 20.9 0.00 0.03 0.00 17 1015.1
20260507120500 17 69 4.8 20.9 0.00 0.03 0.00 17 1015.1
20260507115957 17 4 8.0 24.1 0.00 0.03 0.00 17 1014.9
20260507115458 17 9 4.8 24.1 0.00 0.03 0.00 17 1014.8
20260507114957 17 27 6.4 24.1 0.00 0.03 0.00 17 1014.4
20260507114458 17 31 8.0 19.3 0.00 0.03 0.00 17 1014.2
20260507113958 17 357 4.8 14.5 0.00 0.03 0.00 17 1014.0
20260507112958 17 32 4.8 16.1 0.00 0.03 0.00 17 1013.8
20260507112457 17 51 4.8 16.1 0.00 0.03 0.00 17 1013.9
20260507111958 17 69 4.8 12.9 0.00 0.03 0.00 17 1013.9
20260507111457 17 15 4.8 12.9 0.00 0.03 0.00 17 1013.9
20260507110958 17 25 3.2 11.3 0.00 0.03 0.00 17 1013.7
20260507105458 17 45 3.2 16.1 0.00 0.03 0.00 17 1013.9
20260507104959 17 61 4.8 16.1 0.00 0.03 0.00 17 1014.1
20260507104458 17 42 4.8 19.3 0.00 0.03 0.00 17 1013.9
20260507103958 17 17 4.8 19.3 0.00 0.03 0.00 17 1013.8
20260507103458 17 68 4.8 14.5 0.00 0.03 0.00 17 1013.8
20260507103001 17 66 4.8 14.5 0.00 0.03 0.00 17 1013.7
20260507102457 17 30 3.2 16.1 0.00 0.03 0.00 17 1013.6
20260507101958 17 47 3.2 19.3 0.00 0.03 0.00 17 1013.6
20260507101457 17 80 3.2 19.3 0.00 0.03 0.00 17 1013.4
20260507100501 17 17 4.8 14.5 0.00 0.03 0.00 17 1013.6
20260507095957 17 84 4.8 14.5 0.00 0.03 0.00 17 1013.6
20260507094958 17 1 4.8 16.1 0.00 0.03 0.00 17 1013.6
20260507094457 17 16 3.2 14.5 0.00 0.03 0.00 17 1013.5
20260507094000 17 51 4.8 14.5 0.00 0.03 0.00 17 1013.6
20260507093457 17 68 1.6 14.5 0.00 0.03 0.00 17 1013.7
20260507092958 17 65 1.6 12.9 0.00 0.03 0.00 17 1013.8
20260507091958 17 347 3.2 12.9 0.00 0.03 0.00 17 1013.8
20260507091459 17 84 4.8 12.9 0.00 0.03 0.00 17 1013.8
20260507090958 17 93 4.8 11.3 0.00 0.03 0.00 17 1014.0
20260507090500 17 0 1.6 11.3 0.00 0.03 0.00 17 1013.7
20260507085958 17 84 1.6 8.0 0.00 0.03 0.00 17 1013.7
20260507085458 17 92 1.6 4.8 0.00 0.03 0.00 17 1013.6
20260507085000 17 94 1.6 4.8 0.00 0.03 0.00 17 1013.4
20260507084458 17 18 3.2 19.3 0.00 0.03 0.00 17 1013.5
20260507083958 17 74 3.2 19.3 0.00 0.03 0.00 17 1013.4
20260507083458 17 55 4.8 19.3 0.00 0.03 0.00 17 1013.5
20260507083000 17 22 3.2 16.1 0.00 0.03 0.00 17 1013.6
20260507081958 17 23 4.8 16.1 0.00 0.03 0.00 17 1013.4
20260507081457 17 25 6.4 16.1 0.00 0.03 0.00 17 1013.2
20260507080958 17 23 4.8 14.5 0.00 0.03 0.00 17 1013.2
20260507080500 17 100 1.6 12.9 0.00 0.03 0.00 17 1013.3
20260507075958 17 32 4.8 11.3 0.00 0.03 0.00 17 1013.5
20260507075458 17 20 3.2 11.3 0.00 0.03 0.00 17 1013.7
20260507074958 17 17 1.6 11.3 0.00 0.03 0.00 17 1013.7
20260507074501 17 37 3.2 14.5 0.00 0.03 0.00 17 1013.8
20260507073459 17 68 3.2 16.1 0.00 0.03 0.00 17 1013.8
20260507073000 17 37 3.2 12.9 0.00 0.03 0.00 17 1013.8
20260507072459 17 40 3.2 16.1 0.00 0.03 0.00 17 1013.7
20260507071958 17 59 4.8 16.1 0.00 0.03 0.00 17 1013.7
20260507071458 17 86 4.8 11.3 0.00 0.03 0.00 17 1013.6
20260507070958 17 107 1.6 12.9 0.00 0.03 0.00 17 1013.7
20260507065958 18 76 3.2 12.9 0.00 0.03 0.00 17 1013.7
20260507065458 18 84 3.2 11.3 0.00 0.03 0.00 17 1013.9
20260507064958 18 49 3.2 12.9 0.00 0.03 0.00 17 1014.0
20260507064458 18 95 3.2 16.1 0.00 0.03 0.00 17 1014.0
20260507063458 18 72 3.2 11.3 0.00 0.03 0.00 17 1013.9
20260507062458 18 107 0.0 19.3 0.00 0.03 0.00 17 1013.5
20260507061958 18 65 3.2 19.3 0.00 0.03 0.00 17 1013.6
20260507061458 18 19 4.8 14.5 0.00 0.03 0.00 17 1013.6
20260507060958 18 100 1.6 14.5 0.00 0.03 0.00 17 1013.6
20260507060459 18 80 3.2 14.5 0.00 0.03 0.00 17 1013.7